Location: Gerlach
(40.6516°N, 119.3568°W)
Time: 07:08:38
(UTC-08:00)

Tiros 1 despin weight - Visible Passes

Search period start: 29 January 2023 00:00
Search period end: 08 February 2023 00:00
Orbit: 589 x 636 km, 48.2° (Epoch: 28 January)

Date Brightness Start Highest point End Pass type
(mag) Time Alt. Az. Time Alt. Az. Time Alt. Az.
29 Jan ? 19:03:08 10° W 19:07:29 45° NNW 19:08:20 40° NNE visible
30 Jan ? 17:36:07 10° WSW 17:40:40 90° SSW 17:45:11 10° ENE visible
30 Jan ? 19:18:20 10° WNW 19:22:28 35° NNW 19:22:36 35° N visible
31 Jan ? 17:51:01 10° WSW 17:55:30 58° NNW 17:59:53 10° NE visible
31 Jan ? 19:33:31 10° WNW 19:36:49 29° NNW 19:36:49 29° NNW visible
01 Feb ? 18:06:08 10° W 18:10:27 41° NNW 18:14:05 13° NE visible
01 Feb ? 19:48:36 10° WNW 19:51:02 24° NNW 19:51:02 24° NNW visible
02 Feb ? 18:21:19 10° WNW 18:25:27 33° N 18:28:16 17° NE visible
02 Feb ? 20:03:32 10° NW 20:05:13 20° NW 20:05:13 20° NW visible
03 Feb ? 18:36:29 10° WNW 18:40:31 31° N 18:42:28 22° NE visible
03 Feb ? 20:18:20 10° NW 20:19:25 16° NW 20:19:25 16° NW visible
04 Feb ? 18:51:30 10° WNW 18:55:35 32° N 18:56:40 28° NE visible
04 Feb ? 20:33:05 10° WNW 20:33:37 13° WNW 20:33:37 13° WNW visible
05 Feb ? 19:06:23 10° NW 19:10:37 37° NNE 19:10:54 37° NNE visible
05 Feb ? 20:47:51 10° WNW 20:47:51 10° WNW 20:47:51 10° WNW visible
06 Feb ? 19:21:08 10° NW 19:25:10 48° N 19:25:10 48° N visible
07 Feb ? 17:54:20 10° WNW 17:58:29 33° N 18:02:32 10° ENE visible
07 Feb ? 19:35:52 10° WNW 19:39:29 55° NW 19:39:29 55° NW visible
